Weather in Aeroport

Russia / Zabaykalsky Krai     52°01′05″N   113°18′28″E
temp.,
°C
wind,
m/s
gust,
m/s
humid.,
%
clouds,
%
prec.,
mm/h
press.,
hPa
HPBL,
m
13 may, thu
thu1300:00+5w246917 0.1 100888
03:00+2w34651 0.1 100972
06:000wsw34670 0.0 101078
09:00+5wnw69360 0.0 10091435
12:00+9wnw710240 0.0 10072356
15:00+11wnw7102296 0.0 10063067
18:00+11wnw782155 0.0 10053072
21:00+7nw49327 0.0 1007232
14 may, fri
fri1400:00+2wnw24590 0.0 101073
03:000wsw346136 0.0 101177
06:000w257679 0.0 1011241
09:00+6n795577 0.0 10111517
12:00+8nnw5747100 0.1 10101777
15:00+10nnw5744100 0.8 10102016
18:00+11nnw574085 0.4 10092019
21:00+8w335397 0.4 101131
15 may, sat
sat1500:00+5w246041 0.0 101467
03:00+3wsw22665 0.0 101526
06:00+2wsw22690 0.0 101627
09:00+8wsw34450 0.0 1015643
12:00+14w57270 0.0 10112012
15:00+17w68190 0.0 10082941
18:00+17wnw69205 0.0 10063331
21:00+12w47345 0.0 1005117
16 may, sun
sun1600:00+6w81374100 0.3 1011754
03:00+4w814581 0.7 10111015
06:00+3wnw815581 0.0 1010857
09:00+7wnw91151100 0.0 1010796
12:00+13wnw81037100 0.0 10071560
15:00+14wnw101449100 0.0 10062046
18:00+14wnw1015478 0.0 10061709
21:00+10wnw71361100 0.0 1007821
17 may, mon
mon1700:00+9w71363100 0.0 1007855
03:00+8w5116766 0.0 1007503
06:00+9w51067100 0.0 1006758
09:00+11w71059100 0.0 10061464
12:00+14w81040100 0.0 10041897
15:00+16wnw81129100 0.0 10032481
18:00+14wnw81128100 0.0 10041809
21:00+9wnw6113610 0.0 1006431